Hovedside
METAR-TAF:

METAR-TAF

Lufthavner :

Sogndal lufthamn. Haukåsen

Sogndal, Norge

breddegrad: 61-09N, lengdegrad: 007-08E, høyde over havet: 49 m

Gjeldene værobservasjon

Denne rapporten ble laget for 41 minutter siden, klokken 04:20 UTC
Vind 7 kt fra Nordøst
Temperatur 10°C
Luftfuktighet 50%
Trykk 1013 hPa
Sikt 10 km eller mer
Få skyer i en høyde av 3000 ft
Brutte skyer i en høyde av 5000 ft

METAR: ENSG 250420Z 04007KT 9999 FEW030 BKN050 10/00 Q1013 RMK WIND 3806FT 10023KT

Tid: 07:01 (05:01 UTC)


TAF: fraværende

Værobservasjoner og værvarsel for over 4000 flyplasser (METAR- og TAF-rapporter).

Tilgjengelige stasjoner er representert av de røde og gule prikkene på kartet.

Hold musepekeren over prikken for å se navnet på stasjonen.

Klikk så for å se værobservasjoner og -varsler.

For å forandre kartet kan du klikke på den grønne knappen med svart kryss for å zoome inn, på den grønne knappen med strek for å zoome ut, eller på de grønne pilene for å se tilstøtende kart.


METAR-TAF: